Estación de Freire

Ultimos registro cada 15 minutos 46
Estación Fecha / Hora Temperatura Humedad Lluvia Velocidad Dirección Radiación Presion
46 Freire 05-05-2026 11:45 13,3 100 0 0 176 35 1009,6
45 Freire 05-05-2026 11:30 13,2 100 0 0 176 56 1009,6
44 Freire 05-05-2026 11:15 13,1 100 0 0,4 176 42 1009,6
43 Freire 05-05-2026 11:00 13 100 0 0 176 28 1009,6
42 Freire 05-05-2026 10:45 12,9 100 0 0 176 53 1009,6
41 Freire 05-05-2026 10:30 12,7 100 0 0 176 42 1009,6
40 Freire 05-05-2026 10:15 12,6 100 0 0 176 25 1009,6
39 Freire 05-05-2026 10:00 12,4 100 0 0 176 42 1009,6
38 Freire 05-05-2026 09:45 12,3 100 0 0 176 33 1009,6
37 Freire 05-05-2026 09:30 12,2 100 0 0 176 32 1009,6
36 Freire 05-05-2026 09:15 12,1 100 0 0 176 53 1009,6
35 Freire 05-05-2026 09:00 11,9 100 0 0,4 176 19 1009,6
34 Freire 05-05-2026 08:45 11,9 100 0 0 176 14 1009,6
33 Freire 05-05-2026 08:30 11,6 100 0,3 0,4 176 26 1009,6
32 Freire 05-05-2026 08:15 11,4 100 0 0 176 11 1009,6
31 Freire 05-05-2026 08:00 11,3 100 0 0 176 0 1009,6
30 Freire 05-05-2026 07:45 11,4 100 0 0 176 0 1009,6
29 Freire 05-05-2026 07:30 11,3 100 0,3 0 176 0 1009,6
28 Freire 05-05-2026 07:15 11,3 100 0 0 176 0 1009,6
27 Freire 05-05-2026 07:00 11,2 100 0 0 176 0 1009,6
26 Freire 05-05-2026 06:45 11,2 100 0 0 176 0 1009,6
25 Freire 05-05-2026 06:30 11,2 100 0 0 176 0 1009,6
24 Freire 05-05-2026 06:15 11,2 100 0 0 176 0 1009,6
23 Freire 05-05-2026 06:00 11,2 100 0,3 0,4 176 0 1009,6
22 Freire 05-05-2026 05:45 11,2 100 0 0 176 0 1009,6
21 Freire 05-05-2026 05:30 11,2 100 0 0 176 0 1009,6
20 Freire 05-05-2026 05:15 11,2 100 0 0 176 0 1009,6
19 Freire 05-05-2026 05:00 11,2 100 0 0 176 0 1009,6
18 Freire 05-05-2026 04:45 11,2 100 0 0 176 0 1009,6
17 Freire 05-05-2026 04:30 11,2 100 0 0 176 0 1009,6
16 Freire 05-05-2026 04:15 11,2 100 0 0,4 176 0 1009,6
15 Freire 05-05-2026 04:00 11,2 100 0 0 176 0 1009,6
14 Freire 05-05-2026 03:45 11,3 100 0 0 176 0 1009,6
13 Freire 05-05-2026 03:15 11,3 100 0 0 176 0 1009,6
12 Freire 05-05-2026 03:00 11,3 100 0 0 176 0 1009,6
11 Freire 05-05-2026 02:45 11,4 100 0 0 176 0 1009,6
10 Freire 05-05-2026 02:30 11,4 99 0 0 176 0 1009,6
9 Freire 05-05-2026 02:15 11,5 99 0 0,4 176 0 1009,6
8 Freire 05-05-2026 02:00 11,6 100 0,3 0,4 176 0 1009,6
7 Freire 05-05-2026 01:30 11,8 100 0 0 176 0 1009,6
6 Freire 05-05-2026 01:15 11,8 100 0,3 0 176 0 1009,6
5 Freire 05-05-2026 01:00 11,8 100 0 0 176 0 1009,6
4 Freire 05-05-2026 00:45 11,9 100 0,3 0 176 0 1009,6
3 Freire 05-05-2026 00:30 11,8 100 0,3 0 176 0 1009,6
2 Freire 05-05-2026 00:15 11,8 100 0,3 0,4 176 0 1009,6
1 Freire 05-05-2026 00:00 11,8 100 0 0 176 0 1009,6